Flag for Norway Weather past 2 weeks in Gjøvik, Norway

Now
44 °F

Quite cool.


Feels Like: 42 °F
Forecast: 36 / 42 °F
Wind: 3 mph from Southeast

Location: Lillehammer-Saetherengen

Current Time: Oct 21, 2014 at 1:07:22 PM

Latest Report: Oct 21, 2014 at 12:00 PM


Visibility: N/A

Pressure: 29.50 "Hg

Humidity: 91%

Dew point: 41 °F

Location of GjøvikLocation

Historic Weather in Gjøvik — Graph

°F

Gjøvik temperature yesterday

Maximum temperature yesterday: 50 °F (at 4:00 PM)
Minimum temperature yesterday: 44 °F (at 7:00 AM)
Average temperature yesterday: 47 °F

Past Weeks' High & Low Weather Summary

 TemperatureHumidityPressure
High51 °F (Oct 10, 4:00 PM)97% (Oct 18, 9:00 PM)30.43 "Hg (Oct 18, 9:00 PM)
Low34 °F (Oct 16, 6:00 AM)65% (Oct 6, 9:00 PM)29.23 "Hg (Oct 20, 3:00 AM)
Average42 °F91%29.81 "Hg
* Reported Oct 6 11:00 AM — Oct 21 11:00 AM, Gjøvik, Weather by CustomWeather, © 2014

Note: Actual official high and low records may vary slightly from our data, if they occured in-between our weather recording intervals... More about our weather records

Advertising

Gjøvik weather history for previous 24 hours

 ConditionsComfort  
Time TempWeatherWind HumidityBarometerVisibility
11:00 AM
Oct 21
44 °FQuite cool.3 mph90%29.50 "HgN/A
10:00 AM44 °FQuite cool.2 mph92%29.50 "HgN/A
9:00 AM44 °FQuite cool.2 mph94%29.50 "HgN/A
8:00 AM44 °FQuite cool.2 mph96%29.50 "HgN/A
7:00 AM45 °FCool.1 mph96%29.50 "HgN/A
6:00 AM45 °FCool.1 mph96%29.50 "HgN/A
5:00 AM46 °FCool.2 mph95%29.50 "HgN/A
4:00 AM46 °FCool.2 mph94%29.53 "HgN/A
3:00 AM46 °FCool.1 mph94%29.54 "HgN/A
2:00 AM46 °FCool.No wind94%29.54 "HgN/A
1:00 AM47 °FCool.1 mph92%29.54 "HgN/A
12:00 AM47 °FCool.2 mph91%29.50 "HgN/A
11:00 PM
Oct 20
47 °FCool.1 mph94%29.50 "HgN/A
10:00 PM46 °FCool.1 mph94%29.50 "HgN/A
9:00 PM47 °FCool.No wind94%29.50 "HgN/A
8:00 PM48 °FCool.1 mph93%29.47 "HgN/A
7:00 PM48 °FCool.1 mph93%29.47 "HgN/A
6:00 PM48 °FCool.1 mph90%29.44 "HgN/A
5:00 PM50 °FCool.1 mph84%29.41 "HgN/A
4:00 PM50 °FCool.1 mph86%29.41 "HgN/A
3:00 PM50 °FCool.2 mph85%29.38 "HgN/A
2:00 PM50 °FCool.2 mph86%29.38 "HgN/A
1:00 PM50 °FCool.2 mph91%29.38 "HgN/A
Weather by CustomWeather, © 2014

See weather overviewHow to use our weather pages